Location: Newborough
(53.1667°N, 4.3667°W)
Time: 21:59:33
(UTC+00:00)

Daily predictions for brighter satellites

Satellite Brightness Start Highest point End
(mag) Time Altitude Azimuth Time Altitude Azimuth Time Altitude Azimuth
Cosmos 2278 Rocket 3.0 16:33:09 10° NNW 16:38:07 30° NE 16:43:04 10° E
Cosmos 1933 3.4 16:35:57 10° S 16:39:56 63° E 16:43:55 10° NNE
Cosmos 2346 Rocket 4.5 16:34:37 10° S 16:40:43 72° E 16:46:47 10° NNE
Cosmos 1606 2.8 16:37:14 10° S 16:40:56 55° E 16:44:40 10° NNE
Cosmos 1689 Rocket 2.7 16:38:08 10° NNE 16:41:04 40° E 16:43:57 10° S
IRS-1C Rocket 4.4 16:38:01 10° SE 16:43:00 45° ENE 16:48:01 10° N
FENGYUN 3A 3.9 16:38:35 10° SSE 16:44:02 83° WSW 16:49:30 10° NNW
Lacrosse 4 Rocket 3.6 16:42:35 10° NW 16:44:48 14° NNW 16:47:02 10° NNE
Cosmos 1484 Rocket 3.9 16:42:25 10° S 16:46:18 50° W 16:50:14 10° NNW
Okean O Rocket 1.6 16:44:53 10° SSE 16:49:14 90° WSW 16:53:37 10° NNW
Cosmos 2360 Rocket 2.6 16:45:50 10° S 16:51:12 47° ESE 16:56:38 10° NE
Meteor 1-14 Rocket 4.3 16:46:08 10° N 16:52:08 69° ENE 16:57:59 10° SSE
Landsat 5 4.3 16:49:32 10° N 16:53:16 47° WNW 16:57:05 10° SW
Cosmos 2369 Rocket 4.0 16:50:41 10° NNW 16:53:24 13° N 16:56:08 10° NE
Cosmos 1048 Rocket 4.2 16:48:22 10° S 16:53:38 60° ESE 16:58:57 10° NNE
Cosmos 2333 Rocket 3.5 16:51:21 10° SSE 16:55:32 21° E 16:59:43 10° NE
Cosmos 1302 Rocket 4.2 16:50:46 10° NNW 16:55:57 51° ENE 17:01:04 10° SE
Cosmos 2228 Rocket 3.2 16:51:30 10° S 16:56:02 69° E 17:00:37 10° NNE
NOSS 2-2 (E) 3.4 16:53:01 10° SW 16:56:44 73° SE 17:01:13 10° NE
Cosmos 1328 Rocket 4.3 16:52:55 10° SSW 16:57:11 53° WNW 17:01:26 10° N
NOSS 8 (F) 4.1 16:54:17 10° SW 16:57:23 90° N 17:00:31 11° NE
Cosmos 1980 Rocket 3.4 16:52:07 10° WSW 16:57:25 38° NW 17:02:45 10° NNE
BREEZE-M R/B 4.4 16:51:26 10° SW 16:57:59 39° SSE 17:01:29 10° E
ATLAS 2AS CENTAUR R/B 3.4 16:50:36 10° SSW 16:58:14 52° ESE 17:05:54 10° NE
Okean-O 3.4 16:54:26 10° ESE 16:58:17 29° ENE 17:02:08 10° N
AQUARIUS 4.5 16:55:49 10° SE 17:00:04 44° ENE 17:04:22 10° N
Cosmos 2279 Rocket 4.1 16:54:59 10° N 17:01:07 54° ENE 17:07:14 10° SSE
Feng Yun 1-1 Rocket 4.2 16:56:12 10° SE 17:01:28 57° ENE 17:06:45 10° N
Cosmos 44 Rocket 3.7 16:58:21 10° NW 17:03:02 65° SW 17:07:41 10° SSE
Cosmos 1634 Rocket 4.0 16:57:12 10° N 17:03:25 82° E 17:09:36 10° SSE
Meteor 1-26 Rocket 4.3 16:58:51 10° S 17:04:38 67° E 17:10:19 10° NNE
Radarsat Rocket 4.3 17:00:38 10° SSE 17:06:53 76° WSW 17:12:46 10° NNW
Cosmos 2237 Rocket 4.0 17:09:30 10° ESE 17:10:52 11° E 17:11:43 11° E
Cosmos 1536 4.2 17:08:04 10° NNE 17:11:02 19° ENE 17:13:58 10° ESE
CZ-4 R/B 2.7 17:09:00 10° ESE 17:11:44 19° ENE 17:14:27 10° NNE
Cosmos 1844 3.9 17:07:43 10° NNW 17:13:28 81° WSW 17:19:07 10° SSE
Cosmos 2322 Rocket 2.4 17:08:33 10° SW 17:14:10 75° WNW 17:19:51 10° NNE
Cosmos 1812 4.3 17:12:02 10° SE 17:14:28 16° E 17:15:32 15° ENE
SL-16 R/B 2.6 17:13:07 10° SW 17:18:45 63° NW 17:24:25 10° NNE
SeaSat 1 3.8 17:17:12 14° ENE 17:19:54 21° NNE 17:23:30 10° NNW
Cosmos 1707 Rocket 4.0 17:18:17 10° SSE 17:22:30 43° E 17:26:45 10° NNE
Helios 1A Rocket 4.4 17:20:48 10° S 17:24:44 42° W 17:28:39 10° NNW
Cosmos 1602 3.9 17:24:51 10° NNW 17:28:43 75° W 17:32:35 10° S
Cosmos 2219 Rocket 2.9 17:25:18 10° S 17:30:19 35° ESE 17:34:06 16° NE
Lacrosse 5 rocket 3.6 17:30:34 10° SE 17:31:09 10° SE 17:31:43 10° ESE
Envisat 3.1 17:26:17 10° SE 17:31:11 51° ENE 17:36:07 10° N
COSMOS 2455 3.1 17:25:15 10° SW 17:31:16 69° NW 17:36:51 12° NE
STARLINK-67 4.4 17:29:15 10° SSW 17:31:25 20° SSE 17:32:26 17° ESE
USA 215 3.3 17:25:50 15° ENE 17:31:29 90° SE 17:38:04 10° WSW
SMAP 3.0 17:28:11 10° SSE 17:32:51 89° ENE 17:37:33 10° NNW
ERBS 3.4 17:30:50 10° WNW 17:34:03 45° SW 17:37:15 10° SE
Cosmos 1844 Rocket 3.7 17:29:03 10° NW 17:34:25 50° WSW 17:39:46 10° S
CENTAUR R/B 3.9 17:27:09 10° NW 17:34:50 56° SW 17:43:13 10° SSE
Cosmos 2237 4.2 17:30:38 10° SSW 17:36:23 85° ESE 17:41:44 12° NNE
Cosmos 1908 Rocket 4.5 17:32:46 10° N 17:36:32 26° ENE 17:40:14 10° ESE
COSMO-SKYMED 1 3.7 17:35:38 20° ENE 17:36:48 23° E 17:40:14 10° SE
CORIOLIS 4.1 17:32:41 10° SSE 17:38:08 85° ENE 17:43:38 10° NNW
ALOS 4.4 17:35:14 10° SSW 17:39:18 29° W 17:43:23 10° NNW
Cosmos 1500 3.4 17:35:52 10° N 17:39:33 45° ENE 17:43:10 10° SSE
SL-4 R/B 3.6 17:38:31 10° S 17:41:22 20° SE 17:42:51 16° ESE
Cosmos 304 Rocket 3.9 17:37:31 10° NNW 17:42:21 81° WSW 17:47:10 10° SSE
H-2A R/B 2.7 17:39:01 10° S 17:42:43 80° WSW 17:46:27 10° NNW
NOSS 2 (A) 4.0 17:40:08 10° NW 17:42:46 82° SW 17:44:15 20° SE
Cosmos 1992 Rocket 4.1 17:39:10 10° NNW 17:44:17 51° ENE 17:49:23 10° SE
Cosmos 1340 3.6 17:41:17 10° NNW 17:44:58 51° W 17:48:38 10° S
Meteor 1-5 Rocket 4.1 17:40:27 10° N 17:46:10 75° ENE 17:51:38 10° SSE
NOSS 2-2 (D) 3.7 17:43:03 10° WSW 17:46:47 61° NW 17:49:39 21° NE
COSMOS 2428 3.1 17:42:09 10° S 17:47:30 45° ESE 17:51:04 20° NE
NOAA 12 4.0 17:43:14 10° SSE 17:48:33 81° ENE 17:53:52 10° NNW
Cosmos 1782 3.2 17:46:14 10° SSW 17:50:13 65° WNW 17:54:13 10° N
Cosmos 292 Rocket 4.3 17:47:22 10° NNW 17:51:54 36° NE 17:54:26 21° ESE
YAOGAN 1 3.1 17:48:00 10° SE 17:51:57 36° ENE 17:55:56 10° N
Cosmos 1943 Rocket 3.5 17:47:59 10° NNW 17:52:07 20° NNE 17:53:09 19° NE
Cosmos 1315 Rocket 2.8 17:48:37 10° SSW 17:52:35 86° WNW 17:56:40 10° NNE
FengYun 1-2 T 4.2 17:51:09 10° SSE 17:56:33 64° ENE 18:02:00 10° N
Cosmos 1346 Rocket 4.1 17:52:57 10° NNW 17:56:42 43° W 18:00:28 10° SSW
CSL-04 Rocket 3.8 17:52:59 10° SE 17:58:01 46° ENE 18:03:04 10° N
NOSS 3-1 (C) 4.5 17:52:54 10° WNW 17:59:00 37° N 18:02:51 23° ENE
USA 229 DEB 4.5 17:58:33 10° WNW 18:05:00 38° N 18:08:26 25° ENE
USA 229 4.5 17:58:39 10° WNW 18:05:04 38° N 18:08:31 25° ENE
Cosmos 1733 Rocket 3.0 18:01:11 10° NNW 18:05:35 85° WSW 18:09:57 10° S
CZ-4B R/B 4.3 18:03:44 10° NNW 18:05:53 15° WNW 18:08:01 10° W
CSL-04 Debris 4.2 18:02:16 10° SE 18:07:35 55° ENE 18:12:55 10° N
Meteor 2-6 Rocket 4.0 18:02:48 10° S 18:08:12 88° ESE 18:13:39 10° NNE
Cosmos 2333 4.2 18:02:37 10° SSW 18:08:20 83° ESE 18:12:22 21° NNE
NOSS 3-4 (A) 3.4 18:04:57 10° SW 18:10:59 81° SE 18:14:46 27° NE
NOSS 3-4 (C) 3.4 18:05:03 10° SW 18:11:07 80° SE 18:14:52 27° NE
Meteor 1-10 Rocket 4.1 18:06:39 10° S 18:12:12 85° E 18:17:50 10° NNE
Cosmos 2344 4.4 18:04:42 10° WNW 18:12:43 48° NNE 18:18:30 26° ENE
ATLAS 3B R/B 4.1 18:06:35 10° NW 18:12:43 39° WSW 18:18:59 10° S
YAOGAN 6 2.3 18:09:20 10° SSE 18:12:50 77° ENE 18:16:26 10° N
Cosmos 2322 3.8 18:08:18 10° SW 18:14:01 81° WNW 18:18:05 20° NNE
Ariane Rocket 3.7 18:14:42 32° NE 18:14:42 32° NE 18:18:54 10° N
BREEZE-M DEB (TANK) 3.6 18:10:31 10° WSW 18:14:38 29° S 18:15:45 23° SSE
ISS -2.9 18:12:19 10° W 18:15:32 44° SSW 18:16:28 34° SSE
Cosmos 1269 Rocket 4.3 18:12:03 10° SW 18:17:21 69° WNW 18:21:30 17° NNE
Genesis I 3.9 18:13:45 10° NW 18:17:09 36° NNE 18:17:09 36° NNE
RESURS DK-1 2.5 18:15:23 10° S 18:19:21 48° ESE 18:19:34 48° ESE
COBE Rocket 4.1 18:17:52 10° N 18:22:30 67° WNW 18:27:06 10° SSW
Meteor 1-11 Rocket 4.1 18:16:49 10° NNW 18:22:46 73° W 18:28:42 10° S
Cosmos 2278 Rocket 2.3 18:17:07 10° NW 18:22:48 77° WSW 18:28:27 10° SSE
NOSS 2-2 (C) 4.4 18:20:56 10° W 18:24:36 39° NNW 18:26:11 29° NNE
Cosmos 1666 3.8 18:20:52 10° N 18:22:54 29° N 18:22:54 29° N
NOAA 11 4.2 18:19:33 10° SE 18:24:52 57° ENE 18:30:14 10° N
Lacrosse 4 Rocket 3.8 18:24:18 10° N 18:25:05 11° N 18:25:05 11° N
SKYMED 2 3.5 18:24:20 47° NE 18:25:17 59° ESE 18:29:35 10° S
Cosmos 1092 Rocket 4.0 18:22:49 10° SSE 18:28:56 55° E 18:35:04 10° NNE
Cosmos 2242 Rocket 3.6 18:26:35 10° S 18:31:04 60° E 18:31:38 55° ENE
Okean-O 3.9 18:30:26 10° S 18:34:38 42° W 18:38:53 10° NNW
Meteor 1-27 Rocket 3.7 18:29:09 10° S 18:34:52 81° ESE 18:40:19 12° NNE
Cosmos 2360 Rocket 3.2 18:29:56 10° WSW 18:35:19 43° NW 18:39:12 18° NNE
Cosmos 1900 4.3 18:33:20 10° NW 18:38:15 82° SW 18:40:23 34° SSE
Cosmos 2333 Rocket 2.2 18:33:21 10° SSW 18:39:07 85° WNW 18:41:54 33° NNE
Cosmos 2369 Rocket 3.3 18:34:42 10° NNW 18:38:40 26° NNE 18:38:40 26° NNE
Cosmos 2251 Rocket 3.4 18:35:33 10° SSW 18:40:49 66° ESE 18:41:51 53° ENE
Cosmos 1980 Rocket 4.3 18:39:42 10° WNW 18:43:09 16° NNW 18:45:54 12° NNE
Cosmos 1862 Rocket 3.7 18:39:28 10° SSW 18:43:48 72° WNW 18:45:49 31° N
H-2A R/B 4.1 18:49:28 14° N 18:49:28 14° N 18:50:17 10° N
CZ-4 R/B 1.8 18:42:32 10° S 18:46:25 59° WSW 18:50:17 10° NNW
NOSS 0 Rocket 3.9 18:41:08 10° SSW 18:47:16 63° ESE 18:48:39 50° ENE
Cosmos 1536 3.5 18:43:50 10° NNW 18:47:48 54° W 18:51:43 10° S
ATLAS 2AS CENTAUR R/B 3.3 18:41:17 10° WSW 18:49:16 65° NW 18:53:29 30° NE
Cosmos 1812 3.3 18:46:03 10° SSW 18:49:51 56° WNW 18:50:40 45° NNW
Cosmos 921 Rocket 4.4 18:46:02 10° NNW 18:48:01 26° N 18:48:01 26° N
Cosmos 2237 Rocket 2.2 18:48:10 10° S 18:53:36 57° ESE 18:53:36 57° ESE
SeaSat 1 2.4 18:57:00 68° NNE 18:57:00 68° NNE 19:01:41 10° NNW
Cosmos 2322 Rocket 4.0 18:54:45 10° W 18:59:12 23° NNW 19:02:14 15° N
Cosmos 1867 3.9 18:56:22 10° NW 19:01:14 51° NNE 19:01:14 51° NNE
SL-16 R/B 4.2 18:59:46 10° WNW 19:04:01 21° NNW 19:06:49 15° N
Lacrosse 5 rocket 3.1 19:05:32 10° SW 19:07:34 25° SSW 19:07:34 25° SSW
Cosmos 1553 Rocket 3.9 19:03:27 10° N 19:09:46 71° ENE 19:10:24 66° ESE
Exosat Rocket 3.6 19:07:53 10° SW 19:13:07 70° WNW 19:13:38 64° NNW
COSMO-SKYMED 1 3.3 19:12:50 50° NW 19:13:16 52° WNW 19:17:28 10° SW
Cosmos 2219 Rocket 2.8 19:08:36 10° SW 19:14:05 54° NW 19:15:50 39° N
USA 215 3.3 19:13:11 55° NE 19:14:24 65° N 19:20:52 10° W
COSMOS 2455 4.3 19:13:08 10° W 19:18:15 28° NNW 19:19:59 24° N
Cosmos 1428 Rocket 4.4 19:13:28 10° S 19:19:03 71° SSE 19:19:03 71° SSE
SL-4 R/B 3.8 19:16:33 10° WSW 19:18:28 27° SW 19:18:28 27° SW
Cosmos 2297 3.6 19:15:04 10° NNW 19:20:49 82° WSW 19:20:57 82° SW
Cosmos 1980 3.7 19:17:50 10° SSW 19:22:58 75° SW 19:22:58 75° SW
YAOGAN 1 4.2 19:24:12 10° SSW 19:28:06 32° W 19:32:01 10° NNW
COSMOS 2428 3.6 19:26:23 10° WSW 19:31:49 44° NW 19:33:06 39° NNW
Cosmos 2026 Rocket 3.9 19:28:42 10° SSW 19:34:46 77° WNW 19:35:16 72° NNW
Cosmos 1943 Rocket 3.4 19:31:29 10° NNW 19:34:41 33° NNW 19:34:41 33° NNW
NOSS 3-1 (C) 4.1 19:44:10 10° NW 19:50:16 58° N 19:50:16 58° N
Ariane Rocket 4.4 19:54:55 35° NW 19:54:55 35° NW 19:58:09 10° NNW
USA 229 DEB 4.1 19:50:03 10° NW 19:55:53 56° N 19:55:53 56° N
USA 229 4.1 19:50:09 10° NW 19:55:57 56° NNW 19:55:57 56° NNW
NOSS 3-1 (A) 4.4 19:55:25 10° NW 20:00:52 49° N 20:00:52 49° N
NOSS 3-4 (A) 4.4 19:56:34 10° W 20:02:13 43° NNW 20:02:13 43° NNW
NOSS 3-4 (C) 4.4 19:56:40 10° W 20:02:19 43° NNW 20:02:19 43° NNW
Cosmos 2360 Rocket 4.4 20:17:17 10° WNW 20:20:54 17° NNW 20:20:58 17° NNW
Cosmos 2369 Rocket 4.1 20:18:32 10° NNW 20:20:28 22° NNW 20:20:28 22° NNW
Cosmos 2333 Rocket 4.0 20:19:28 10° W 20:23:56 26° NW 20:23:56 26° NW
Cosmos 2344 4.1 20:19:26 10° NW 20:28:32 86° NNE 20:28:32 86° NNE
Cosmos 2237 Rocket 4.2 20:32:48 10° WSW 20:35:28 25° W 20:35:28 25° W
ATLAS 2AS CENTAUR R/B 4.0 20:34:10 10° WNW 20:40:55 39° NNW 20:40:55 39° NNW
